Tracking 35237 objects as of 6-Sep-2026
HD Live streaming from Space Station
objects crossing your sky now

SCOUT B R/B


SCOUT B R/B is no longer on orbit


NORAD ID: 3234
Int'l Code: 1968-041B
Launch date: May 17, 1968
Source: United States (US)
Launch site: AIR FORCE WESTERN TEST RANGE (AFWTR)
Decay date: 1970-03-30

Note: This is a ROCKET BODY
Your satellite tracking list
Your tracking list is empty




NASA's NSSDC Master Catalog

Two Line Element Set (TLE):
1 03234U 68041  B 70089.89048523  .12501382 +00000-0 +00000-0 0  9996
2 03234 097.2116 236.2385 0000009 123.7613 236.3633 16.44400516102281
Source of the keplerian elements: AFSPC